Voltar ao catálogo

STARLINK-34152

AtivoComunicaçõesVLEO
NORAD 64000·PAYLOAD·🇺🇸 United States

Lançado May 14, 2025 de Cape Canaveral Space Force Station

Loading…

Próximas Passagens (próximas 24 horas)

TLE

AtualizadoSource: CelesTrak SupGP

Época: Sep 14, 2026, 23:12 UTC

1 64000C 25101G   26257.96715278 -.00013508  00000+0 -48920-3 0  2577
2 64000  43.0039   8.9386 0001626 277.6599  86.5951 15.27588504    15

Acompanhe STARLINK-34152 em tempo real com AllMySat

Download on the App Store